Location: Abraham Lincoln Continuation High School
(33.9711°N, 117.3662°W)
Time: 03:51:18
(UTC+00:00)

Cosmos 1092 Rocket - Pass Details

Date: 21 September 2020
Orbit: 954 x 995 km, 82.9° (Epoch: 25 October)

Event Time Altitude Azimuth Distance (km) Brightness Sun altitude
Rises 03:41:08 0° 358° (N) 3,642 7.3 -23.9°
Reaches altitude 10° 03:43:41 10° 3° (N) 2,696 6.5 -24.4°
Maximum altitude 03:49:45 58° 82° (E) 1,110 3.9 -25.6°
Enters shadow 03:49:46 58° 83° (E) 1,110 3.9 -25.6°
